CZ-6A DEB, 64630

Orbit data source: Space-Track

CZ-6A DEB, 64630 is space debris in LEO originally from a launch on Tue, 06 Aug 2024 UTC launched from the Taiyaun Space Center, China (TSC). Debris objects in space refer to the collection of defunct objects orbiting the Earth. Examples of debris include non-operational satellites, rocket bodies, and fragments generated from explosions, collisions, or faulty payload assembly.

Loading next visibility...
Identifier
64630, 2024-140ADU
Orbit
LEO
Country
Flag of CNCN / PRC
Related business
Manufacturer
SAST
Mission
Spacecraft
Bus & Motor
Unknown
Mass
Unknown
Launch date (UTC)
2024-08-06 (2 years ago)
Launch vehicle
Unknown
Launch site
Taiyaun Space Center, China (TSC)
Object type
Payload
Rocket body
Debris
Shape & HBR
Unknown shape, 0.1 m
Radar Cross Section
Small (<0.1 m²)

Expand to show TLE details & history
Last TLE update: 1 day ago

TLE from 1 day ago
0 CZ-6A DEB
1 64630U 24140ADU 26170.93875366  .00001258  00000-0  42301-3 0  9992
2 64630  88.5226 233.3538 0041608 227.0360 132.7348 14.36078512 93803
Epoch: 2026-06-19T22:31Z
TLE epoch observation values (Epoch: 2026-06-19T22:31:48.316Z)
Latitude
0.00005°
Longitude
-12.75806°
Altitude
794.816 km
Speed
7.446 km/s
True Right ascension
15h 33m 24s
True Declination
0° 00' 00"
Sunlit
Object was in full shadow at epoch
Visualization orbit readout
Latitude
Unknown
Longitude
Unknown
Altitude
Unknown
Speed
Unknown
Apparent Right ascension
Unknown
Apparent Declination
Unknown
Sunlit
N/A
Visualization observer readout
Local Sidereal Time
10:18:40
Azimuth
Unknown
Elevation
Unknown
Doppler factor
Unknown
Orbital elements
Apogee altitude
798.151 km
Perigee altitude
738.681 km
Semi-major axis
7,146.553 km
Eccentricity
0.00416
Inclination
88.5226°
RAAN
233.3538°
Arg. of periapsis
227.036°
True anomaly
133.08377°
Mean anomaly
132.7348°
Eccentric anomaly
132.90941°
Mean motion
3.59251 °/min
Orbital period
100.21 mins
BSTAR
0.00042301
Loading maneuver chart data...
Computing Atmospheric mass density...
Loading historical data...
Loading historical data...
Loading historical data...
Loading historical data...
Loading historical data...
Loading historical data...
Loading historical data...

Documentation

Showing up to 5 results
|